Wind_Speed
25 26 27 29 30 31 32 31 30 30 31 31 32 33 34 36 38 41 43 45 47 49 51 54 56 57 59 61 64 66 69 71 73 74 75 75 74 75 75 75 74 73 73
28 28 29 31 33 35 36 35 34 35 35 36 37 38 40 42 43 44 45 47 49 52 55 57 62 65 69 72 73 75 78 80 82 83 84 84 82 81 82 83 82 82 81
30 31 32 34 35 36 37 37 37 38 39 40 41 44 45 46 47 48 50 52 55 58 62 67 71 74 77 80 81 84 85 85 84 84 84 85 84 81 78 77 78 80 81
33 34 36 36 36 35 36 38 40 41 43 43 44 46 48 51 52 53 56 59 63 67 70 73 76 79 82 85 86 87 86 84 81 78 76 76 74 72 71 69 68 70 72
34 35 36 36 37 37 38 40 42 43 44 45 47 49 52 54 56 59 63 67 70 73 76 79 82 84 86 86 84 82 78 75 73 70 69 68 67 66 66 64 60 61 63
33 34 36 37 39 39 40 41 42 44 45 47 50 52 55 58 61 65 69 72 76 79 82 84 86 85 84 81 77 74 71 69 67 66 66 66 65 64 65 64 60 59 60
33 35 37 39 40 40 40 41 42 43 46 49 52 55 59 63 67 70 74 77 80 83 86 86 84 80 76 72 69 67 66 65 65 65 65 64 64 63 63 64 62 59 56
34 36 37 37 37 37 38 39 42 45 48 52 55 60 64 68 71 74 78 81 84 85 84 80 75 69 65 62 61 60 60 60 60 60 59 59 59 59 59 59 58 53 49
34 34 34 34 35 36 39 42 45 49 52 56 60 64 68 71 75 78 81 83 82 79 74 66 60 58 57 56 55 54 53 52 51 50 49 48 48 48 48 47 46 44 42
32 32 33 34 37 40 43 46 50 53 57 61 65 69 73 76 79 80 80 78 73 65 57 54 54 53 52 50 47 45 44 42 41 40 39 39 38 37 36 36 36 36 35
33 34 36 38 41 45 48 51 55 58 62 67 71 74 77 79 79 76 71 64 55 50 49 48 47 45 43 41 40 39 38 37 37 36 35 33 32 31 30 31 32 32 31
35 37 40 43 46 49 52 56 60 65 69 73 76 78 78 76 71 63 55 48 45 43 42 41 40 39 37 37 36 36 35 35 34 32 31 29 28 28 28 29 28 28 27
39 41 43 46 49 52 57 61 66 70 73 76 76 75 70 63 55 48 42 40 38 37 36 36 35 35 35 35 34 33 32 31 30 28 27 25 25 25 25 24 24 24 23
42 44 46 48 52 56 61 66 69 72 73 71 66 60 52 45 40 36 34 33 31 31 32 32 32 32 31 31 30 29 27 26 24 22 21 20 20 20 21 22 22 21 19
44 45 47 51 56 60 64 67 69 67 62 55 48 41 35 31 28 27 26 26 27 28 28 28 27 27 26 25 25 24 22 20 18 16 15 15 16 17 18 18 17 15 13
44 46 50 54 58 61 63 64 59 52 45 38 32 27 24 22 21 22 23 24 25 26 26 26 26 25 24 24 22 21 19 16 15 14 13 13 13 14 15 15 12 9 7
44 48 52 56 59 60 58 52 44 37 30 26 22 20 19 19 20 22 23 24 26 28 28 28 27 26 25 24 22 20 18 16 14 13 13 12 13 13 13 12 7 5 4
46 50 54 56 57 53 46 38 30 23 20 18 18 18 19 21 23 24 26 28 29 29 29 28 27 26 25 24 22 20 18 15 13 13 13 13 12 11 11 9 4 2 5
47 51 54 53 48 40 31 22 17 16 16 16 18 20 22 24 26 28 29 29 30 30 30 29 28 27 25 24 23 21 19 17 15 13 12 12 11 9 8 6 3 4 7
48 51 49 42 34 25 17 13 13 13 15 17 20 22 25 27 29 30 31 32 33 32 31 30 28 26 25 23 22 21 20 17 15 13 12 10 9 6 5 2 2 5 9
47 44 37 28 20 13 10 9 10 12 15 18 21 24 27 29 32 34 34 35 34 33 32 30 28 25 22 20 19 20 19 18 16 13 11 8 6 3 4 5 5 7 10
40 33 24 16 9 6 5 7 10 14 17 20 23 26 29 32 35 36 35 34 33 31 30 28 25 23 20 18 16 15 16 15 14 13 11 8 4 3 7 8 8 9 11
28 19 11 4 1 4 6 9 12 15 19 22 25 29 32 35 38 38 36 34 32 30 28 25 23 20 20 19 16 13 12 11 11 12 12 11 7 6 10 11 11 12 12
15 7 2 4 7 8 9 11 14 17 20 23 27 31 35 38 40 40 38 35 32 30 27 25 22 20 19 20 19 17 13 10 9 10 13 14 12 10 12 14 14 14 14
5 5 9 11 10 9 10 13 15 17 20 24 28 32 36 39 40 40 39 36 32 30 28 26 23 21 20 19 18 17 14 10 7 8 12 16 17 15 15 16 17 16 16
9 13 14 13 11 10 11 13 15 17 20 24 28 32 35 38 40 40 39 36 33 31 30 28 26 23 21 19 18 15 13 9 6 6 10 16 19 19 17 18 18 18 17
Wind_Direction
274 278 285 291 296 299 300 297 289 283 279 278 280 281 282 284 285 286 287 288 289 289 289 289 289 290 291 290 289 288 288 288 287 286 285 284 283 281 280 278 276 276 276
271 275 281 288 293 296 296 294 288 282 283 284 286 287 287 288 289 289 289 290 291 291 292 293 294 294 294 293 292 291 290 290 289 288 287 285 283 283 282 281 279 276 275
274 278 283 287 290 291 292 290 287 284 286 287 288 288 289 291 292 293 294 294 295 296 296 296 296 295 294 293 293 292 291 291 290 289 288 287 285 283 281 280 279 278 276
279 283 285 286 286 286 286 286 284 284 284 285 286 287 290 293 294 295 296 297 297 297 297 296 295 294 294 293 292 292 291 290 289 288 287 286 285 284 281 279 279 278 276
281 282 283 283 283 282 281 280 280 281 282 283 284 288 291 293 294 295 296 296 296 296 296 296 295 295 294 293 293 292 291 289 288 287 286 286 285 284 282 282 281 280 280
278 279 280 280 280 279 278 277 277 278 280 283 286 289 291 291 292 293 294 294 295 296 296 296 296 296 295 294 292 291 289 288 288 287 287 286 285 284 283 284 284 283 280
279 279 280 280 280 279 279 279 280 282 284 286 287 289 289 290 291 292 293 294 295 296 296 297 297 296 295 293 291 290 289 288 287 287 286 285 284 283 282 283 285 284 281
283 283 283 282 281 281 282 283 285 286 287 287 288 289 290 291 292 293 294 295 296 297 298 298 297 296 295 294 292 291 290 289 289 289 287 285 284 283 283 283 284 284 281
287 286 285 284 284 284 285 287 288 289 289 289 290 291 292 293 294 295 296 297 298 299 299 298 297 297 296 295 294 293 293 292 292 290 289 287 286 284 284 284 284 285 284
291 289 288 288 288 289 290 291 291 292 293 293 294 294 295 295 297 298 299 299 299 299 298 298 298 298 299 298 298 297 296 296 295 293 292 290 288 287 286 286 286 286 286
292 291 291 292 293 294 295 296 297 297 297 296 296 297 297 298 299 300 300 300 299 298 298 299 300 301 301 301 301 300 299 299 297 296 294 293 290 289 289 289 288 286 286
292 292 294 296 297 298 299 300 300 299 299 299 299 300 300 300 301 301 301 299 299 300 301 303 303 304 304 304 304 302 301 300 299 297 296 295 293 292 292 291 290 287 286
295 296 298 300 301 302 302 301 301 301 301 301 301 301 301 301 301 300 299 300 301 303 306 308 308 307 307 307 306 305 304 303 300 297 296 296 296 297 295 294 293 289 285
298 300 302 302 303 302 302 302 303 304 304 304 303 303 303 302 301 300 301 303 306 310 312 314 313 312 311 310 310 308 307 307 304 301 298 297 298 300 299 298 295 290 283
300 301 301 302 302 302 304 305 306 307 307 307 307 307 307 306 305 305 308 312 315 318 319 320 321 320 318 317 316 313 310 311 311 307 304 302 303 307 307 303 298 291 279
298 299 300 301 302 305 307 308 309 310 312 314 315 316 316 316 316 317 319 320 321 321 321 321 320 319 319 319 319 318 313 311 311 310 309 308 311 311 314 311 302 288 268
297 298 300 302 304 307 309 311 313 315 318 323 327 330 331 330 328 326 324 323 320 318 316 315 313 312 310 311 313 315 312 309 305 304 306 308 310 310 315 318 303 278 237
296 298 301 304 307 310 312 314 318 324 330 336 341 343 342 338 335 332 328 324 322 320 318 316 313 310 307 305 304 304 303 301 300 299 301 303 304 301 308 316 302 237 190
297 300 304 307 310 312 316 321 329 336 342 347 349 348 345 342 338 336 333 331 327 324 321 318 315 311 307 304 301 297 294 289 286 288 295 302 303 292 294 297 283 189 176
300 304 307 309 311 315 321 331 340 347 353 356 356 353 350 348 345 342 338 333 329 325 322 318 314 310 307 303 298 293 288 282 276 273 280 294 303 286 266 239 175 167 168
304 307 309 310 313 319 332 350 3 6 7 5 3 0 358 354 350 346 341 337 334 331 328 325 321 316 311 305 298 291 286 279 269 262 260 272 296 268 198 165 151 151 160
307 308 308 309 317 337 14 28 23 20 17 15 12 8 3 360 357 353 349 346 344 341 338 335 331 327 323 318 308 297 288 279 266 250 239 237 252 212 176 163 152 144 145
307 305 304 305 26 79 65 45 35 30 25 21 16 11 8 5 3 360 357 354 352 349 347 344 340 335 331 328 327 319 303 286 266 241 221 210 203 185 172 167 160 150 144
299 290 212 137 120 98 69 52 43 34 26 20 15 12 9 8 6 4 0 358 356 354 352 350 346 340 334 328 325 323 318 303 275 238 211 196 185 177 173 173 169 159 151
256 165 144 134 117 92 69 54 42 31 23 18 14 11 9 8 7 6 3 360 358 357 354 351 347 342 337 331 324 317 312 301 279 243 209 193 183 176 172 174 175 171 164
162 148 141 130 110 87 67 50 36 26 19 15 12 9 8 7 7 7 5 3 360 358 356 354 351 349 347 343 338 327 314 293 262 236 210 194 185 178 173 173 177 180 179
Height
5854 5852 5849 5846 5843 5840 5837 5834 5832 5829 5826 5824 5822 5819 5817 5814 5811 5808 5805 5801 5798 5794 5790 5786 5782 5778 5773 5768 5763 5759 5754 5749 5744 5741 5738 5735 5732 5728 5725 5722 5721 5720 5717
5848 5846 5844 5841 5838 5834 5831 5827 5824 5821 5818 5816 5813 5810 5807 5804 5801 5797 5794 5790 5786 5782 5778 5773 5768 5762 5757 5751 5747 5741 5735 5731 5725 5720 5715 5713 5714 5709 5704 5700 5699 5698 5696
5842 5840 5837 5834 5831 5828 5824 5820 5817 5813 5810 5807 5804 5800 5796 5792 5789 5785 5782 5777 5773 5769 5764 5758 5752 5745 5738 5731 5726 5719 5713 5709 5704 5697 5691 5687 5686 5686 5684 5679 5677 5674 5671
5834 5831 5829 5826 5823 5820 5817 5812 5808 5805 5801 5797 5794 5790 5786 5782 5777 5773 5768 5763 5758 5753 5747 5741 5734 5727 5719 5711 5705 5698 5692 5686 5682 5678 5670 5664 5661 5659 5658 5660 5657 5653 5650
5826 5823 5820 5817 5814 5812 5808 5805 5801 5797 5793 5789 5785 5780 5776 5771 5765 5760 5754 5749 5742 5736 5729 5722 5715 5707 5699 5690 5683 5676 5670 5664 5659 5656 5650 5645 5641 5639 5634 5637 5641 5636 5632
5817 5814 5811 5808 5805 5802 5799 5796 5792 5788 5784 5780 5776 5771 5765 5760 5754 5748 5741 5735 5727 5719 5711 5703 5695 5686 5677 5669 5662 5656 5650 5645 5641 5637 5632 5628 5625 5622 5617 5616 5620 5619 5616
5809 5806 5803 5800 5796 5793 5790 5787 5783 5779 5775 5771 5765 5760 5754 5748 5741 5734 5726 5719 5711 5702 5692 5684 5675 5665 5657 5649 5643 5638 5633 5628 5624 5620 5616 5612 5608 5605 5602 5599 5599 5599 5598
5800 5797 5794 5791 5787 5784 5781 5778 5774 5769 5764 5759 5754 5748 5741 5734 5726 5718 5710 5701 5692 5682 5672 5663 5654 5646 5639 5633 5627 5622 5617 5612 5608 5603 5599 5595 5593 5590 5587 5584 5582 5580 5580
5792 5788 5785 5782 5779 5776 5772 5768 5763 5758 5753 5747 5741 5734 5726 5718 5709 5700 5691 5682 5672 5662 5653 5644 5637 5631 5625 5619 5613 5607 5602 5597 5593 5588 5584 5581 5579 5576 5574 5571 5568 5566 5564
5784 5780 5777 5774 5770 5766 5762 5757 5752 5747 5741 5733 5726 5717 5709 5700 5691 5681 5671 5662 5653 5645 5637 5631 5624 5618 5611 5605 5599 5594 5589 5585 5581 5577 5573 5570 5567 5565 5563 5560 5558 5555 5553
5776 5772 5769 5765 5761 5757 5751 5746 5740 5733 5726 5717 5708 5699 5690 5680 5671 5661 5653 5645 5638 5632 5626 5620 5613 5607 5601 5595 5589 5584 5580 5575 5571 5567 5564 5561 5558 5556 5554 5552 5549 5547 5545
5767 5764 5760 5756 5751 5746 5739 5733 5725 5717 5709 5699 5690 5680 5670 5661 5653 5645 5638 5632 5627 5622 5616 5610 5604 5598 5592 5586 5581 5576 5571 5567 5563 5559 5556 5553 5551 5549 5546 5544 5541 5539 5538
5759 5754 5750 5745 5740 5733 5726 5719 5710 5702 5692 5681 5671 5661 5652 5645 5638 5632 5628 5623 5618 5613 5607 5602 5596 5590 5584 5579 5574 5569 5564 5559 5555 5552 5549 5546 5544 5542 5539 5537 5534 5532 5531
5749 5745 5740 5734 5728 5722 5714 5705 5696 5686 5675 5664 5654 5645 5638 5632 5628 5624 5620 5616 5611 5606 5600 5594 5588 5583 5577 5572 5567 5562 5558 5553 5549 5545 5543 5541 5539 5537 5534 5531 5529 5527 5525
5740 5735 5730 5724 5718 5710 5702 5692 5682 5672 5661 5651 5642 5635 5629 5625 5621 5618 5614 5610 5605 5600 5594 5588 5583 5577 5572 5567 5562 5557 5553 5549 5544 5541 5539 5537 5535 5532 5530 5527 5524 5522 5521
5731 5726 5720 5714 5707 5699 5690 5680 5670 5660 5651 5643 5636 5630 5625 5622 5618 5614 5610 5605 5600 5594 5589 5583 5578 5573 5568 5563 5558 5553 5549 5545 5541 5538 5536 5534 5532 5529 5527 5524 5521 5519 5519
5722 5717 5711 5704 5697 5688 5679 5669 5660 5652 5645 5639 5633 5628 5624 5620 5615 5611 5606 5600 5595 5589 5583 5577 5572 5567 5562 5558 5553 5549 5545 5541 5538 5536 5533 5531 5529 5526 5524 5522 5519 5518 5517
5714 5708 5701 5694 5686 5678 5669 5661 5654 5649 5643 5638 5633 5628 5623 5618 5613 5608 5602 5596 5589 5582 5576 5570 5565 5560 5555 5551 5547 5544 5540 5538 5535 5533 5530 5528 5526 5524 5522 5520 5518 5517 5517
5705 5699 5692 5684 5677 5669 5662 5657 5652 5648 5643 5638 5633 5628 5622 5617 5610 5604 5597 5590 5583 5576 5569 5563 5557 5552 5548 5544 5540 5537 5534 5532 5530 5529 5527 5525 5523 5521 5519 5518 5517 5517 5517
5695 5689 5682 5676 5669 5664 5659 5656 5652 5648 5643 5638 5633 5627 5621 5614 5608 5600 5593 5585 5577 5569 5562 5556 5550 5545 5540 5537 5533 5530 5528 5526 5525 5524 5523 5522 5520 5518 5517 5517 5517 5517 5518
5686 5680 5674 5669 5664 5661 5658 5656 5652 5648 5644 5638 5632 5626 5620 5612 5605 5596 5588 5579 5570 5562 5554 5548 5542 5537 5533 5530 5526 5523 5521 5519 5518 5518 5519 5518 5517 5516 5516 5516 5517 5517 5518
5678 5672 5668 5664 5662 5660 5658 5656 5653 5648 5643 5638 5632 5626 5619 5611 5602 5593 5583 5574 5565 5557 5549 5543 5537 5531 5527 5524 5521 5518 5515 5513 5512 5513 5513 5514 5514 5514 5515 5516 5517 5518 5520
5671 5667 5664 5663 5662 5661 5659 5657 5653 5648 5644 5638 5632 5625 5617 5609 5600 5590 5581 5572 5563 5554 5547 5540 5534 5529 5524 5520 5516 5513 5510 5508 5507 5507 5508 5510 5511 5512 5513 5515 5517 5519 5521
5666 5664 5663 5663 5663 5662 5660 5657 5653 5649 5644 5638 5631 5624 5616 5607 5598 5589 5579 5570 5561 5553 5545 5538 5532 5527 5521 5516 5512 5509 5506 5504 5503 5502 5504 5506 5508 5510 5512 5514 5517 5520 5522
5664 5664 5664 5664 5664 5663 5660 5657 5654 5650 5644 5638 5631 5624 5615 5607 5598 5588 5579 5570 5561 5552 5545 5537 5530 5524 5519 5513 5508 5504 5501 5500 5499 5499 5500 5502 5505 5508 5510 5513 5516 5519 5522
5663 5664 5665 5666 5665 5664 5661 5658 5655 5651 5645 5639 5631 5623 5615 5607 5598 5589 5579 5569 5560 5552 5543 5535 5528 5521 5515 5509 5504 5500 5496 5495 5495 5496 5497 5499 5502 5505 5508 5511 5514 5518 5521